Overview Statistics Trail Chart Weather Telemetry Raw packets
 

This is the latest recevied weather packets stored in our database for station/object SV9TNF-57. If no packets are shown the sender has not sent any weather packets the latest 10 day(s).

<< 37 38 39 40 41 42 43 >>
Time Temp. Humidity Pressure Rain* Wind** Luminosity Snow
1788407642 26.11° C 46% 993.4 hPa 0 mm 0 m/s - -
1788407342 26.11° C 46% 993.2 hPa 0 mm 0 m/s - -
1788407042 26.11° C 46% 993.5 hPa 0 mm 0 m/s - -
1788406742 26.11° C 46% 993.3 hPa 0 mm 1.34 m/s, 302° - -
1788406443 26.11° C 45% 993.3 hPa 0 mm 0.89 m/s, 250° - -
1788406143 26.11° C 45% 993.3 hPa 0 mm 0 m/s - -
1788405842 26.11° C 45% 993.4 hPa 0 mm 2.24 m/s, 259° - -
1788405542 26.11° C 45% 993.3 hPa 0 mm 2.68 m/s, 268° - -
1788405242 25.56° C 45% 993.2 hPa 0 mm 0 m/s - -
1788404941 25° C 47% 993.2 hPa 0 mm 0 m/s - -
1788404641 24.44° C 51% 993.2 hPa 0 mm 0 m/s - -
1788404341 25.56° C 64% 993.2 hPa 0 mm 0 m/s - -
1788404041 26.11° C 68% 993.2 hPa 0 mm 0 m/s - -
1788403741 26.11° C 58% 993.1 hPa 0 mm 0 m/s - -
1788403441 25° C 50% 993.3 hPa 0 mm 0 m/s - -
1788403141 24.44° C 58% 993.2 hPa 0 mm 0 m/s - -
1788402841 25° C 69% 993.1 hPa 0 mm 0 m/s - -
1788402540 25.56° C 70% 993.1 hPa 0 mm 0 m/s - -
1788402241 25.56° C 70% 993.2 hPa 0 mm 0 m/s - -
1788401941 25.56° C 70% 993.2 hPa 0 mm 0 m/s - -
1788401640 25.56° C 68% 993.3 hPa 0 mm 0 m/s - -
1788401340 26.11° C 68% 993.1 hPa 0 mm 0 m/s - -
1788401040 26.11° C 64% 993.3 hPa 0 mm 0 m/s - -
1788400740 26.11° C 60% 993.2 hPa 0 mm 0 m/s - -
1788400440 26.11° C 59% 993.1 hPa 0 mm 0 m/s - -

* Rain latest hour (hover to see other rain measurements)
** Current wind speed in m/s (hover to see current wind gust speed)